When you browse on this site, cookies collect data to enhance your experience and personalize the content and advertising you see.
Visit our Privacy Policy to learn more. By continuing to use the site, you agree to this use of cookies and data.
  • In Österreich
  • Länderverzeichnis
  • Für 7 Tage
  • Wassertemperatur
  • Wetterkarte
  • News
  • Widgets
  • user-avatar
    Anmelden

    Stündliche Wetter Zasuv

    Heute, 17 September, Dienstag

    Zeit Temperatur Niederschläge Wind Luftdruck Luftfeuchtigkeit
    00:00 +11°C° 0 mm 4 m/S 737 mmHg 79%
    01:00 +10°C° 0 mm 4 m/S 737 mmHg 81%
    02:00 +10°C° 0 mm 3 m/S 737 mmHg 83%
    03:00 +9°C° 0 mm 3 m/S 737 mmHg 84%
    04:00 +9°C° 0 mm 3 m/S 736 mmHg 84%
    05:00 +8°C° 0 mm 2 m/S 736 mmHg 85%
    06:00 +9°C° 0 mm 3 m/S 736 mmHg 81%
    07:00 +10°C° 0 mm 3 m/S 736 mmHg 78%
    08:00 +10°C° 0 mm 4 m/S 737 mmHg 72%
    09:00 +12°C° 0 mm 5 m/S 737 mmHg 65%
    10:00 +13°C° 0 mm 5 m/S 737 mmHg 58%
    11:00 +15°C° 0 mm 5 m/S 736 mmHg 51%
    12:00 +15°C° 0 mm 5 m/S 736 mmHg 50%
    13:00 +16°C° 0 mm 5 m/S 735 mmHg 48%
    14:00 +17°C° 0 mm 6 m/S 735 mmHg 46%
    15:00 +16°C° 0 mm 5 m/S 734 mmHg 49%
    16:00 +16°C° 0 mm 5 m/S 734 mmHg 51%
    17:00 +15°C° 0 mm 5 m/S 733 mmHg 53%
    18:00 +14°C° 0 mm 5 m/S 733 mmHg 55%
    19:00 +13°C° 0 mm 4 m/S 733 mmHg 57%
    20:00 +12°C° 0 mm 4 m/S 733 mmHg 58%
    21:00 +12°C° 0 mm 4 m/S 733 mmHg 61%
    22:00 +11°C° 0 mm 4 m/S 732 mmHg 65%
    23:00 +10°C° 0 mm 5 m/S 732 mmHg 68%

    Morgen, 18 September, Mittwoch

    Zeit Temperatur Niederschläge Wind Luftdruck Luftfeuchtigkeit
    00:00 +9°C° 0.3 mm 6 m/S 732 mmHg 73%
    01:00 +9°C° 0.3 mm 7 m/S 732 mmHg 77%
    02:00 +7°C° 0.3 mm 8 m/S 732 mmHg 82%
    03:00 +6°C° 0.1 mm 8 m/S 732 mmHg 83%
    04:00 +6°C° 0.1 mm 8 m/S 732 mmHg 83%
    05:00 +5°C° 0.1 mm 8 m/S 732 mmHg 84%
    06:00 +5°C° 0 mm 9 m/S 733 mmHg 81%
    07:00 +5°C° 0 mm 9 m/S 734 mmHg 79%
    08:00 +5°C° 0 mm 10 m/S 734 mmHg 77%
    09:00 +5°C° 0.1 mm 10 m/S 734 mmHg 77%
    10:00 +5°C° 0.1 mm 10 m/S 735 mmHg 78%
    11:00 +5°C° 0.1 mm 10 m/S 735 mmHg 79%
    12:00 +6°C° 0.2 mm 10 m/S 736 mmHg 75%
    13:00 +7°C° 0.2 mm 10 m/S 736 mmHg 72%
    14:00 +8°C° 0.2 mm 10 m/S 737 mmHg 69%
    15:00 +8°C° 0 mm 9 m/S 737 mmHg 68%
    16:00 +8°C° 0 mm 9 m/S 738 mmHg 67%
    17:00 +8°C° 0 mm 9 m/S 738 mmHg 66%
    18:00 +9°C° 0 mm 8 m/S 739 mmHg 66%
    19:00 +8°C° 0 mm 7 m/S 739 mmHg 67%
    20:00 +8°C° 0 mm 6 m/S 740 mmHg 67%
    21:00 +7°C° 0 mm 6 m/S 740 mmHg 71%
    22:00 +7°C° 0 mm 6 m/S 740 mmHg 74%
    23:00 +6°C° 0 mm 5 m/S 741 mmHg 77%

    übermorgen, 19 September, Donnerstag

    Zeit Temperatur Niederschläge Wind Luftdruck Luftfeuchtigkeit
    00:00 +6°C° 0 mm 5 m/S 741 mmHg 78%
    01:00 +6°C° 0 mm 5 m/S 741 mmHg 79%
    02:00 +5°C° 0 mm 5 m/S 741 mmHg 79%
    03:00 +5°C° 0 mm 5 m/S 741 mmHg 82%
    04:00 +4°C° 0 mm 4 m/S 741 mmHg 85%
    05:00 +4°C° 0 mm 4 m/S 741 mmHg 88%
    06:00 +5°C° 0 mm 4 m/S 742 mmHg 85%
    07:00 +6°C° 0 mm 5 m/S 742 mmHg 81%
    08:00 +6°C° 0 mm 5 m/S 742 mmHg 78%
    09:00 +8°C° 0 mm 5 m/S 742 mmHg 73%
    10:00 +9°C° 0 mm 5 m/S 743 mmHg 68%
    11:00 +12°C° 0 mm 5 m/S 743 mmHg 63%
    12:00 +12°C° 0.2 mm 5 m/S 743 mmHg 60%
    13:00 +13°C° 0.2 mm 6 m/S 743 mmHg 56%
    14:00 +14°C° 0.2 mm 6 m/S 742 mmHg 53%
    15:00 +13°C° 0.3 mm 5 m/S 742 mmHg 56%
    16:00 +13°C° 0.3 mm 5 m/S 742 mmHg 60%
    17:00 +12°C° 0.3 mm 5 m/S 742 mmHg 63%
    18:00 +10°C° 0.2 mm 4 m/S 743 mmHg 70%
    19:00 +8°C° 0.2 mm 4 m/S 743 mmHg 78%
    20:00 +7°C° 0.2 mm 3 m/S 743 mmHg 85%
    21:00 +7°C° 0.2 mm 3 m/S 743 mmHg 85%
    22:00 +6°C° 0.2 mm 4 m/S 743 mmHg 86%
    23:00 +6°C° 0.2 mm 4 m/S 743 mmHg 87%

    20 September, Freitag

    Zeit Temperatur Niederschläge Wind Luftdruck Luftfeuchtigkeit
    00:00 +6°C° 0.1 mm 4 m/S 742 mmHg 88%
    01:00 +5°C° 0.1 mm 4 m/S 742 mmHg 90%
    02:00 +5°C° 0.1 mm 4 m/S 742 mmHg 91%
    03:00 +5°C° 0 mm 4 m/S 742 mmHg 93%
    04:00 +4°C° 0 mm 4 m/S 742 mmHg 94%
    05:00 +3°C° 0 mm 4 m/S 742 mmHg 96%
    06:00 +3°C° 0 mm 5 m/S 742 mmHg 94%
    07:00 +5°C° 0 mm 5 m/S 743 mmHg 91%
    08:00 +5°C° 0 mm 5 m/S 743 mmHg 89%
    09:00 +5°C° 0.1 mm 6 m/S 743 mmHg 80%
    10:00 +8°C° 0.1 mm 6 m/S 744 mmHg 71%
    11:00 +9°C° 0.1 mm 6 m/S 744 mmHg 62%
    12:00 +10°C° 0.2 mm 6 m/S 744 mmHg 57%
    13:00 +10°C° 0.2 mm 7 m/S 744 mmHg 52%
    14:00 +11°C° 0.2 mm 7 m/S 743 mmHg 47%
    15:00 +10°C° 0.1 mm 6 m/S 743 mmHg 50%
    16:00 +10°C° 0.1 mm 6 m/S 743 mmHg 53%
    17:00 +9°C° 0.1 mm 6 m/S 744 mmHg 55%
    18:00 +8°C° 0 mm 5 m/S 744 mmHg 63%
    19:00 +6°C° 0 mm 4 m/S 744 mmHg 70%
    20:00 +5°C° 0 mm 3 m/S 745 mmHg 77%
    21:00 +4°C° 0 mm 3 m/S 745 mmHg 79%
    22:00 +4°C° 0 mm 3 m/S 745 mmHg 80%
    23:00 +3°C° 0 mm 3 m/S 745 mmHg 82%

    21 September, Samstag

    Zeit Temperatur Niederschläge Wind Luftdruck Luftfeuchtigkeit
    00:00 +3°C° 0 mm 3 m/S 746 mmHg 83%
    01:00 +3°C° 0 mm 3 m/S 746 mmHg 85%
    02:00 +2°C° 0 mm 3 m/S 746 mmHg 87%
    03:00 +2°C° 0 mm 3 m/S 746 mmHg 88%
    04:00 +1°C° 0 mm 3 m/S 747 mmHg 89%
    05:00 +2°C° 0 mm 2 m/S 747 mmHg 90%
    06:00 +2°C° 0 mm 3 m/S 747 mmHg 85%
    07:00 +3°C° 0 mm 3 m/S 747 mmHg 81%
    08:00 +4°C° 0 mm 3 m/S 747 mmHg 76%
    09:00 +7°C° 0 mm 3 m/S 748 mmHg 67%
    10:00 +8°C° 0 mm 4 m/S 748 mmHg 57%
    11:00 +11°C° 0 mm 4 m/S 748 mmHg 47%
    12:00 +12°C° 0 mm 4 m/S 748 mmHg 45%
    13:00 +12°C° 0 mm 4 m/S 748 mmHg 42%
    14:00 +13°C° 0 mm 4 m/S 748 mmHg 39%
    15:00 +13°C° 0 mm 3 m/S 748 mmHg 41%
    16:00 +12°C° 0 mm 3 m/S 748 mmHg 44%
    17:00 +13°C° 0 mm 2 m/S 747 mmHg 46%
    18:00 +10°C° 0 mm 2 m/S 747 mmHg 52%
    19:00 +9°C° 0 mm 2 m/S 747 mmHg 57%
    20:00 +8°C° 0 mm 1 m/S 747 mmHg 62%
    21:00 +8°C° 0 mm 1 m/S 747 mmHg 63%
    22:00 +7°C° 0 mm 2 m/S 747 mmHg 64%
    23:00 +7°C° 0 mm 2 m/S 747 mmHg 65%

    22 September, Sonntag

    Zeit Temperatur Niederschläge Wind Luftdruck Luftfeuchtigkeit
    00:00 +6°C° 0 mm 2 m/S 747 mmHg 67%
    01:00 +6°C° 0 mm 2 m/S 747 mmHg 68%
    02:00 +5°C° 0 mm 3 m/S 747 mmHg 69%
    03:00 +6°C° 0 mm 2 m/S 747 mmHg 69%
    04:00 +5°C° 0 mm 2 m/S 747 mmHg 70%
    05:00 +5°C° 0 mm 2 m/S 746 mmHg 70%
    06:00 +6°C° 0 mm 2 m/S 746 mmHg 66%
    07:00 +8°C° 0 mm 2 m/S 746 mmHg 62%
    08:00 +9°C° 0 mm 2 m/S 746 mmHg 58%
    09:00 +12°C° 0 mm 2 m/S 746 mmHg 53%
    10:00 +14°C° 0 mm 2 m/S 746 mmHg 47%
    11:00 +17°C° 0 mm 3 m/S 746 mmHg 41%
    12:00 +18°C° 0 mm 3 m/S 745 mmHg 40%
    13:00 +19°C° 0 mm 3 m/S 745 mmHg 38%
    14:00 +20°C° 0 mm 3 m/S 744 mmHg 37%
    15:00 +19°C° 0 mm 3 m/S 744 mmHg 41%
    16:00 +19°C° 0 mm 2 m/S 743 mmHg 45%
    17:00 +18°C° 0 mm 2 m/S 742 mmHg 49%
    18:00 +17°C° 0 mm 2 m/S 742 mmHg 51%
    19:00 +15°C° 0 mm 2 m/S 742 mmHg 53%
    20:00 +13°C° 0 mm 2 m/S 741 mmHg 56%
    21:00 +11°C° 0 mm 3 m/S 741 mmHg 55%
    22:00 +11°C° 0 mm 3 m/S 741 mmHg 55%
    23:00 +10°C° 0 mm 3 m/S 741 mmHg 54%
    Mehr zeigen